This is the latest recevied weather packets stored in our database for station/object F5UKM-10. If no packets are shown the sender has not sent any weather packets the latest 1 day(s).
| Time | Temp. | Humidity | Pressure | Rain* | Wind** | Luminosity | Snow |
|---|---|---|---|---|---|---|---|
| 1778093683 | 22.22° C | 47% | 1015.7 hPa | - | - | - | - |
| 1778092783 | 21.67° C | 47% | 1014.8 hPa | - | - | - | - |
| 1778091883 | 22.22° C | 47% | 1015.4 hPa | - | - | - | - |
| 1778089190 | 22.22° C | 46% | 1015.2 hPa | - | - | - | - |
| 1778088289 | 22.22° C | 47% | 1015.2 hPa | - | - | - | - |
| 1778087389 | 22.22° C | 46% | 1015.2 hPa | - | - | - | - |
| 1778086489 | 21.67° C | 47% | 1015.2 hPa | - | - | - | - |
| 1778085585 | 21.67° C | 47% | 1015 hPa | - | - | - | - |
| 1778084689 | 21.67° C | 47% | 1015 hPa | - | - | - | - |
| 1778084685 | 21.67° C | 47% | 1015 hPa | - | - | - | - |
| 1778083789 | 21.67° C | 47% | 1015 hPa | - | - | - | - |
| 1778083785 | 21.67° C | 47% | 1015 hPa | - | - | - | - |
| 1778081089 | 21.11° C | 47% | 1015 hPa | - | - | - | - |
| 1778080189 | 21.11° C | 47% | 1014.9 hPa | - | - | - | - |
| 1778079289 | 20.56° C | 47% | 1015 hPa | - | - | - | - |
| 1778078384 | 20.56° C | 47% | 1014.9 hPa | - | - | - | - |
| 1778077484 | 20.56° C | 47% | 1015 hPa | - | - | - | - |
| 1778076589 | 20.56° C | 47% | 1014.9 hPa | - | - | - | - |
| 1778076584 | 20.56° C | 47% | 1014.9 hPa | - | - | - | - |
| 1778075684 | 20.56° C | 47% | 1014.9 hPa | - | - | - | - |
| 1778072989 | 20° C | 48% | 1015.1 hPa | - | - | - | - |
| 1778071189 | 20° C | 48% | 1015.1 hPa | - | - | - | - |
| 1778070289 | 20° C | 47% | 1014.9 hPa | - | - | - | - |
| 1778069389 | 20° C | 48% | 1014.8 hPa | - | - | - | - |
| 1778069383 | 20° C | 48% | 1014.8 hPa | - | - | - | - |
* Rain since midnight (hover to see other rain measurements)
** Current wind speed in m/s (hover to see current wind gust speed)